Bogota, Colombia

7:44 PM COT on January 18, 2017 (GMT -0500)
El Dorado International Airport

Weather History for SKBO - December, 2012

Change the Weather History Date:

Saturday, December 8, 2012

  Actual Average Record
Temperature  
Mean Temperature 58 °F -  
Max Temperature 68 °F 66 °F 84 °F (1999)
Min Temperature 49 °F 44 °F 41 °F (1996)
Degree Days  
Heating Degree Days 6    
Growing Degree Days 8 (Base 50)    
Moisture  
Dew Point 47 °F    
Average Humidity 69    
Maximum Humidity 100    
Minimum Humidity 30    
Precipitation  
Precipitation 0.00 in 0.06 in - ()
Sea Level Pressure  
Sea Level Pressure 30.28 in    
Wind  
Wind Speed 6 mph ()    
Max Wind Speed 18 mph    
Max Gust Speed 28 mph    
Visibility 6.7 miles    
Events Fog    
Averages and records for this station are not official NWS values.
T = Trace of Precipitation, MM = Missing Value Source: Averaged Metar Reports

Daily Weather History Graph

Daily Weather History Graph

Search for Another Location

Airport or City:

Trip Planner

Search our weather history database for the weather conditions in past years. The results will help you decide how hot, cold, wet, or windy it might be!

Date:

Astronomy

Dec. 08, 2012 Rise Set
Actual Time 5:52 AM COT 5:44 PM COT
Civil Twilight 5:30 AM COT 6:06 PM COT
Nautical Twilight 5:04 AM COT 6:33 PM COT
Astronomical Twilight 4:38 AM COT 6:59 PM COT
Moon 1:07 AM COT (12/8) 1:26 PM COT (12/8)
Length of Visible Light 12h 36m
Length of Day
11h 51m
Waning Crescent, 28% of the Moon is Illuminated
Dec 8
Waning Crescent
Dec 13
New
Dec 20
First Quarter
Dec 28
Full
Jan 4
Last Quarter

Hourly Weather History & Observations

Time (COT) Temp. Dew Point Humidity Pressure Visibility Wind Dir Wind Speed Gust Speed Precip Events Conditions
12:00 AM 51.8 °F 50.0 °F 94% 30.30 in 3.7 mi ENE 3.5 mph - N/A Fog Patches of Fog
1:00 AM 50 °F 49 °F 93%  in 2 mi NNE 4.5 mph - - Fog Light Fog
1:00 AM 50.0 °F 50.0 °F 100% 30.28 in 3.7 mi NNE 3.5 mph - N/A Fog Patches of Fog
2:00 AM 51.8 °F 50.0 °F 94% 30.25 in 6.2 mi NNE 3.5 mph - N/A   Mostly Cloudy
3:00 AM 50.0 °F 50.0 °F 100% 30.24 in 6.2 mi NNW 3.5 mph - N/A   Mostly Cloudy
4:00 AM 49 °F 48 °F 94%  in 4 mi NNE 6.7 mph - -   Mist
4:00 AM 50.0 °F 48.2 °F 94% 30.24 in 6.2 mi NNE 5.8 mph - N/A   Scattered Clouds
5:00 AM 50.0 °F 48.2 °F 94% 30.27 in 6.2 mi NE 5.8 mph - N/A   Partly Cloudy
5:30 AM 51.8 °F 50.0 °F 94% 30.28 in 6.2 mi NE 5.8 mph - N/A   Partly Cloudy
6:00 AM 51.8 °F 50.0 °F 94% 30.29 in 6.2 mi ENE 6.9 mph - N/A   Partly Cloudy
7:00 AM 53 °F 50 °F 86%  in 11 mi NNE 6.7 mph - -   Haze
7:00 AM 53.6 °F 50.0 °F 88% 30.32 in 6.2 mi NNE 6.9 mph - N/A   Partly Cloudy
8:00 AM 57.2 °F 50.0 °F 77% 30.32 in 6.2 mi Variable 2.3 mph - N/A   Scattered Clouds
8:30 AM 59.0 °F 50.0 °F 72% 30.33 in 6.2 mi ESE 13.8 mph - N/A   Scattered Clouds
9:00 AM 62.6 °F 46.4 °F 55% 30.34 in 6.2 mi East 13.8 mph - N/A   Scattered Clouds
10:00 AM 65 °F 46 °F 38%  in 11 mi East 13.4 mph - -   Haze
10:00 AM 64.4 °F 46.4 °F 52% 30.34 in 6.2 mi East 13.8 mph - N/A   Scattered Clouds
11:00 AM 66.2 °F 44.6 °F 46% 30.31 in 6.2 mi East 13.8 mph 27.6 mph N/A   Scattered Clouds
12:00 PM 68.0 °F 44.6 °F 43% 30.29 in 6.2 mi East 18.4 mph - N/A   Scattered Clouds
1:00 PM 68 °F 44 °F 30%  in 11 mi East 11.2 mph - -   Haze
1:00 PM 68.0 °F 42.8 °F 40% 30.27 in 6.2 mi East 11.5 mph - N/A   Scattered Clouds
2:00 PM 66.2 °F 44.6 °F 46% 30.25 in 6.2 mi ESE 12.7 mph - N/A   Scattered Clouds
3:00 PM 68.0 °F 41.0 °F 37% 30.24 in 6.2 mi Calm Calm - N/A   Scattered Clouds
4:00 PM 66 °F 43 °F 32%  in 11 mi East 11.2 mph - -   Haze
4:00 PM 66.2 °F 42.8 °F 43% 30.23 in 6.2 mi East 11.5 mph - N/A   Scattered Clouds
5:00 PM 64.4 °F 44.6 °F 49% 30.25 in 6.2 mi East 11.5 mph - N/A   Scattered Clouds
6:00 PM 62.6 °F 44.6 °F 52% 30.27 in 6.2 mi East 9.2 mph - N/A   Scattered Clouds
7:00 PM 58 °F 47 °F 56%  in 11 mi ESE 8.9 mph - -   Haze
7:00 PM 57.2 °F 46.4 °F 67% 30.30 in 6.2 mi ESE 9.2 mph - N/A   Scattered Clouds
8:00 PM 59.0 °F 46.4 °F 63% 30.02 in 6.2 mi East 4.6 mph - N/A   Scattered Clouds
9:00 PM 53.6 °F 48.2 °F 82% 30.35 in 6.2 mi ESE 4.6 mph - N/A   Partly Cloudy
10:00 PM 53 °F 48 °F 77%  in 11 mi NE 2.2 mph - -   Haze
10:00 PM 53.6 °F 48.2 °F 82% 30.35 in 6.2 mi Variable 2.3 mph - N/A   Partly Cloudy
11:00 PM 51.8 °F 46.4 °F 82% 30.35 in 6.2 mi Variable 2.3 mph - N/A   Partly Cloudy